Voltar ao catálogo

FREGAT DEB

LostUNKNOWN
NORAD 46244·DEBRIS·🇷🇺 Russia

Lançado Jul 18, 2011 de Baikonur Cosmodrome

Loading…

Próximas Passagens (próximas 24 horas)

TLE

ObsoletoSource: Space-Track

Época: Oct 19, 2021, 23:00 UTC

1 46244U 11037KE  21292.95844473 -.00012538  00000-0 -28579+0 0  9993
2 46244  50.9371 267.2202 1803712 315.7029  31.3473  9.55556172 40502

Acompanhe FREGAT DEB em tempo real com AllMySat

Download on the App Store